Morristown, NJ

10:10 PM EDT on October 21, 2017 (GMT -0400)
Morristown Municipal

Weather History for KMMU - February, 2014

Change the Weather History Date:

Tuesday, February 11, 2014

  Actual Average Record
Temperature  
Mean Temperature 12 °F -  
Max Temperature 24 °F 38 °F 66 °F (2009)
Min Temperature 1 °F 15 °F -12 °F (1948)
Degree Days  
Heating Degree Days 52    
Moisture  
Dew Point 3 °F    
Average Humidity 66    
Maximum Humidity 92    
Minimum Humidity 43    
Precipitation  
Precipitation 0.00 in - - ()
Sea Level Pressure  
Sea Level Pressure 30.37 in    
Wind  
Wind Speed 2 mph (NNW)    
Max Wind Speed 12 mph    
Max Gust Speed 21 mph    
Visibility 10 miles    
Events      
Averages and records for this station are not official NWS values.
T = Trace of Precipitation, MM = Missing Value Source: NWS Daily Summary

Daily Weather History Graph

Daily Weather History Graph

Search for Another Location

Airport or City:

Trip Planner

Search our weather history database for the weather conditions in past years. The results will help you decide how hot, cold, wet, or windy it might be!

Date:

Astronomy

Feb. 11, 2014 Rise Set
Actual Time 6:56 AM EST 5:27 PM EST
Civil Twilight 6:28 AM EST 5:55 PM EST
Nautical Twilight 5:56 AM EST 6:28 PM EST
Astronomical Twilight 5:24 AM EST 7:00 PM EST
Moon 2:45 PM EST (2/11) 4:32 AM EST (2/11)
Length of Visible Light 11h 27m
Length of Day
10h 30m
Waxing Gibbous, 90% of the Moon is Illuminated
Feb 11
Waxing Gibbous
Feb 14
Full
Feb 22
Last Quarter
Mar 1
New
Mar 8
First Quarter

Hourly Weather History & Observations

Time (EST) Temp. Windchill Dew Point Humidity Pressure Visibility Wind Dir Wind Speed Gust Speed Precip Events Conditions
12:15 AM 10.4 °F - 5.0 °F 79% 30.29 in 10.0 mi Calm Calm - N/A   Clear
12:35 AM 8.6 °F - 3.2 °F 79% 30.29 in 10.0 mi Calm Calm - N/A   Clear
12:55 AM 10.4 °F - 6.8 °F 85% 30.29 in 10.0 mi Calm Calm - N/A   Clear
1:15 AM 8.6 °F - 5.0 °F 85% 30.29 in 10.0 mi Calm Calm - N/A   Clear
1:35 AM 6.8 °F - 3.2 °F 85% 30.29 in 10.0 mi Calm Calm - N/A   Clear
1:55 AM 6.8 °F - 3.2 °F 85% 30.30 in 10.0 mi Calm Calm - N/A   Clear
2:15 AM 6.8 °F - 3.2 °F 85% 30.30 in 10.0 mi Calm Calm - N/A   Clear
2:35 AM 6.8 °F - 1.4 °F 79% 30.31 in 10.0 mi Calm Calm - N/A   Clear
2:55 AM 5.0 °F - 1.4 °F 85% 30.31 in 10.0 mi Calm Calm - N/A   Clear
3:15 AM 6.8 °F - 1.4 °F 79% 30.31 in 10.0 mi Calm Calm - N/A   Clear
3:35 AM 5.0 °F - 1.4 °F 85% 30.31 in 10.0 mi Calm Calm - N/A   Clear
3:55 AM 5.0 °F - 1.4 °F 85% 30.32 in 10.0 mi Calm Calm - N/A   Clear
4:15 AM 5.0 °F - 1.4 °F 85% 30.32 in 10.0 mi Calm Calm - N/A   Clear
4:35 AM 5.0 °F - -0.4 °F 78% 30.33 in 10.0 mi Calm Calm - N/A   Clear
4:55 AM 3.2 °F - -2.2 °F 78% 30.34 in 10.0 mi Calm Calm - N/A   Clear
5:15 AM 3.2 °F - -0.4 °F 85% 30.34 in 10.0 mi Calm Calm - N/A   Clear
5:35 AM 5.0 °F - -0.4 °F 78% 30.34 in 10.0 mi Calm Calm - N/A   Clear
6:45 AM 1.4 °F - -0.4 °F 92% 30.36 in 10.0 mi Calm Calm - N/A   Clear
7:45 AM 5.0 °F - 1.4 °F 85% 30.39 in 10.0 mi Calm Calm - N/A   Clear
8:45 AM 15.8 °F 6.1 °F 6.8 °F 68% 30.41 in 10.0 mi NNW 6.9 mph - N/A   Clear
10:45 AM 19.4 °F 7.2 °F 5.0 °F 54% 30.41 in 10.0 mi NNW 11.5 mph - N/A   Clear
11:45 AM 21.2 °F 9.5 °F 5.0 °F 50% 30.37 in 10.0 mi NNE 11.5 mph 18.4 mph N/A   Partly Cloudy
12:45 PM 23.0 °F 14.7 °F 5.0 °F 46% 30.36 in 10.0 mi North 6.9 mph 16.1 mph N/A   Partly Cloudy
1:45 PM 23.0 °F 14.7 °F 3.2 °F 43% 30.33 in 10.0 mi NNW 6.9 mph 20.7 mph N/A   Partly Cloudy
2:45 PM 24.8 °F 15.3 °F 5.0 °F 43% 30.33 in 10.0 mi NW 9.2 mph 16.1 mph N/A   Partly Cloudy
3:45 PM 24.8 °F 15.3 °F 5.0 °F 43% 30.34 in 10.0 mi North 9.2 mph 16.1 mph N/A   Partly Cloudy
4:45 PM 23.0 °F 13.1 °F 5.0 °F 46% 30.36 in 20.0 mi North 9.2 mph 17.3 mph N/A   Clear
5:45 PM 21.2 °F 13.6 °F 5.0 °F 50% 30.39 in 10.0 mi NNW 5.8 mph - N/A   Clear
6:45 PM 19.4 °F 7.2 °F 5.0 °F 54% 30.42 in 10.0 mi North 11.5 mph - N/A   Clear
7:45 PM 19.4 °F 9.5 °F 5.0 °F 54% 30.44 in 10.0 mi North 8.1 mph 20.7 mph N/A   Clear
8:45 PM 17.6 °F 10.7 °F 3.2 °F 53% 30.46 in 10.0 mi North 4.6 mph - N/A   Clear
9:45 PM 15.8 °F 10.2 °F 3.2 °F 58% 30.48 in 10.0 mi North 3.5 mph - N/A   Clear
9:55 PM 19.4 °F 14.3 °F 1.4 °F 46% 30.47 in 10.0 mi NNW 3.5 mph - N/A   Clear
10:15 PM 19.4 °F 12.8 °F 1.4 °F 46% 30.47 in 10.0 mi NNW 4.6 mph - N/A   Clear
10:35 PM 17.6 °F 12.3 °F 1.4 °F 49% 30.48 in 10.0 mi North 3.5 mph - N/A   Clear
10:55 PM 17.6 °F - 1.4 °F 49% 30.48 in 10.0 mi Calm Calm - N/A   Clear
11:15 PM 17.6 °F 12.3 °F 3.2 °F 53% 30.48 in 10.0 mi North 3.5 mph - N/A   Clear
11:35 PM 17.6 °F 9.3 °F 3.2 °F 53% 30.48 in 10.0 mi North 5.8 mph - N/A   Clear
11:55 PM 17.6 °F - 3.2 °F 53% 30.48 in 10.0 mi Calm Calm - N/A   Clear